^^
Station Historical Data
Daily Summary for January 12, 2018 Units:  Metric    English   Both
« Previous Day
Next Day »
Daily Weekly Monthly Yearly Custom
  High: Low: Average:
Temperature: -17.8 °C 18.1 °C 23.7 °C
Dew Point: -17.8 °C 6.6 °C 10.8 °C
Humidity: Humidity% 25% 46%
Wind Speed: 0km/h 0km/h 1.9km/h
Wind Gust: 0km/h - -
Wind- - South
Pressure: 0 hPa 1003.9 hPa -
Precipitation: 7.62 mm    
Historical Graphs
 
 
Tabular Data for January 12, 2018
Time Temperature Dew Point Pressure Wind Wind Speed Wind Gust Humidity Rainfall Rate (Hourly) solar Conditions
-17.8 °C -17.8 °C 0 hPa Calm     Humidity% 0 mm SolarRadiationWatts/m^2 W/m2 Conditions
00:00 24.7 °C 6.9 °C 1006.3 hPa Calm     32% 0 mm 0.0 W/m2
00:06 24.6 °C 6.8 °C 1006.3 hPa Calm     32% 0 mm 0.0 W/m2
00:12 24.6 °C 7.3 °C 1006.3 hPa Calm     33% 0 mm 0.0 W/m2
00:17 24.5 °C 6.7 °C 1006.3 hPa Calm     32% 0 mm 0.0 W/m2
00:22 24.4 °C 6.6 °C 1006 hPa Calm     32% 0 mm 0.0 W/m2
00:27 24.4 °C 7.1 °C 1006.3 hPa Calm     33% 0 mm 0.0 W/m2
00:29 24.4 °C 7.1 °C 1006 hPa Calm     33% 0 mm 0.0 W/m2
00:34 24.4 °C 7.1 °C 1006 hPa SE 1.4 km/h 1.6 km/h 33% 0 mm 0.0 W/m2
00:42 24.3 °C 7 °C 1006 hPa Calm     33% 0 mm 0.0 W/m2
00:47 24.3 °C 7 °C 1006 hPa Calm   3.2 km/h 33% 0 mm 0.0 W/m2
00:52 24.2 °C 6.9 °C 1006 hPa Calm     33% 0 mm 0.0 W/m2
00:55 24.2 °C 6.9 °C 1006 hPa Calm   1.6 km/h 33% 0 mm 0.0 W/m2
01:00 24.2 °C 6.9 °C 1006 hPa Calm   1.6 km/h 33% 0 mm 0.0 W/m2
01:08 24.2 °C 6.9 °C 1006 hPa Calm   3.2 km/h 33% 0 mm 0.0 W/m2
01:14 24.2 °C 6.9 °C 1006 hPa Calm     33% 0 mm 0.0 W/m2
01:20 24.2 °C 6.9 °C 1005.6 hPa Calm     33% 0 mm 0.0 W/m2
01:25 24.1 °C 7.3 °C 1005.6 hPa Calm     34% 0 mm 0.0 W/m2
01:30 24 °C 7.2 °C 1005.6 hPa Calm   1.6 km/h 34% 0 mm 0.0 W/m2
01:35 23.8 °C 7.4 °C 1005.6 hPa Calm   1.6 km/h 35% 0 mm 0.0 W/m2
01:44 23.5 °C 7.2 °C 1005.6 hPa Calm   1.6 km/h 35% 0 mm 0.0 W/m2
01:49 23.3 °C 7.4 °C 1005.6 hPa ENE 1.4 km/h 3.2 km/h 36% 0 mm 0.0 W/m2
01:54 23.2 °C 7.3 °C 1005.6 hPa Calm     36% 0 mm 0.0 W/m2
01:59 23.1 °C 7.2 °C 1005.6 hPa Calm   1.6 km/h 36% 0 mm 0.0 W/m2
02:05 22.9 °C 7.4 °C 1005.6 hPa ENE 1.4 km/h 1.6 km/h 37% 0 mm 0.0 W/m2
02:10 22.8 °C 6.9 °C 1005.6 hPa Calm   3.2 km/h 36% 0 mm 0.0 W/m2
02:15 22.8 °C 6.9 °C 1006 hPa NE 3.2 km/h 4.8 km/h 36% 0 mm 0.0 W/m2
02:25 22.8 °C 6.9 °C 1006 hPa NE 1.4 km/h 6.4 km/h 36% 0 mm 0.0 W/m2
02:33 22.8 °C 6.9 °C 1006 hPa Calm   3.2 km/h 36% 0 mm 0.0 W/m2
02:36 22.7 °C 6.9 °C 1006 hPa Calm   3.2 km/h 36% 0 mm 0.0 W/m2
02:41 22.7 °C 6.9 °C 1006 hPa SE 1.4 km/h 3.2 km/h 36% 0 mm 0.0 W/m2
02:47 22.6 °C 6.8 °C 1006 hPa Calm   1.6 km/h 36% 0 mm 0.0 W/m2
02:52 22.6 °C 7.2 °C 1006 hPa NE 1.4 km/h 3.2 km/h 37% 0 mm 0.0 W/m2
02:57 22.5 °C 6.7 °C 1005.6 hPa Calm   1.6 km/h 36% 0 mm 0.0 W/m2
03:02 22.4 °C 7 °C 1005.6 hPa Calm   1.6 km/h 37% 0 mm 0.0 W/m2
03:07 22.3 °C 6.9 °C 1005.6 hPa Calm     37% 0 mm 0.0 W/m2
03:12 22.2 °C 6.8 °C 1005.6 hPa Calm     37% 0 mm 0.0 W/m2
03:22 21.9 °C 6.9 °C 1005.6 hPa Calm     38% 0 mm 0.0 W/m2
03:43 21.3 °C 6.8 °C 1005.6 hPa East 1.4 km/h 3.2 km/h 39% 0 mm 0.0 W/m2
03:48 21.1 °C 7 °C 1005.6 hPa ENE 1.4 km/h 3.2 km/h 40% 0 mm 0.0 W/m2
03:53 21 °C 6.9 °C 1005.6 hPa Calm   3.2 km/h 40% 0 mm 0.0 W/m2
03:59 20.9 °C 6.8 °C 1005.6 hPa ENE 1.4 km/h 4.8 km/h 40% 0 mm 0.0 W/m2
04:04 20.9 °C 6.8 °C 1005.6 hPa Calm   6.4 km/h 40% 0 mm 0.0 W/m2
04:09 20.8 °C 6.7 °C 1005.6 hPa Calm   6.4 km/h 40% 0 mm 0.0 W/m2
04:14 20.8 °C 7.1 °C 1006 hPa NE 1.4 km/h 6.4 km/h 41% 0 mm 0.0 W/m2
04:25 20.6 °C 6.9 °C 1005.6 hPa Calm   3.2 km/h 41% 0 mm 0.0 W/m2
04:31 20.4 °C 7.1 °C 1005.6 hPa Calm   4.8 km/h 42% 0 mm 0.0 W/m2
04:41 20.2 °C 6.9 °C 1005.6 hPa Calm   1.6 km/h 42% 0 mm 0.0 W/m2
04:46 20.1 °C 6.8 °C 1005.6 hPa Calm     42% 0 mm 0.0 W/m2
04:51 19.9 °C 6.9 °C 1005.6 hPa Calm     43% 0 mm 0.0 W/m2
04:56 19.8 °C 6.9 °C 1005.6 hPa Calm   1.6 km/h 43% 0 mm 0.0 W/m2
05:01 19.7 °C 6.8 °C 1005.6 hPa ENE 1.4 km/h 1.6 km/h 43% 0 mm 0.0 W/m2
05:06 19.6 °C 6.7 °C 1005.6 hPa ENE 1.4 km/h 1.6 km/h 43% 0 mm 0.0 W/m2
05:12 19.5 °C 6.9 °C 1005.6 hPa ESE 1.4 km/h 1.6 km/h 44% 0 mm 0.0 W/m2
05:17 19.4 °C 6.8 °C 1006 hPa East 1.4 km/h 4.8 km/h 44% 0 mm 0.0 W/m2
05:22 19.3 °C 7.1 °C 1006 hPa Calm   3.2 km/h 45% 0 mm 0.0 W/m2
05:32 19.2 °C 7 °C 1006 hPa East 1.4 km/h 4.8 km/h 45% 0 mm 0.0 W/m2
05:37 19.1 °C 7.2 °C 1006 hPa Calm   1.6 km/h 46% 0 mm 0.0 W/m2
05:42 19.1 °C 7.2 °C 1006 hPa ENE 3.2 km/h 3.2 km/h 46% 0 mm 0.0 W/m2
05:47 19 °C 7.1 °C 1006 hPa Calm   3.2 km/h 46% 0 mm 0.0 W/m2
05:52 18.9 °C 7 °C 1006.3 hPa Calm     46% 0 mm 0.0 W/m2
05:57 18.9 °C 7 °C 1006.3 hPa Calm   1.6 km/h 46% 0 mm 0.0 W/m2
06:03 18.9 °C 7.3 °C 1006.3 hPa Calm   1.6 km/h 47% 0 mm 0.0 W/m2
06:08 18.8 °C 7.2 °C 1006.3 hPa East 3.2 km/h 3.2 km/h 47% 0 mm 0.0 W/m2
06:13 18.7 °C 7.2 °C 1006.3 hPa Calm   3.2 km/h 47% 0 mm 0.0 W/m2
06:18 18.7 °C 7.2 °C 1006.3 hPa East 3.2 km/h 8 km/h 47% 0 mm 0.0 W/m2
06:23 18.7 °C 7.2 °C 1006.7 hPa ENE 4.7 km/h 8 km/h 47% 0 mm 5.0 W/m2
06:28 18.7 °C 7.2 °C 1006.7 hPa NE 1.4 km/h 6.4 km/h 47% 0 mm 7.0 W/m2
06:33 18.7 °C 7.2 °C 1006.7 hPa ENE 3.2 km/h 6.4 km/h 47% 0 mm 11.0 W/m2
06:38 18.7 °C 7.2 °C 1006.7 hPa ENE 3.2 km/h 4.8 km/h 47% 0 mm 12.0 W/m2
06:43 18.8 °C 7.2 °C 1006.7 hPa East 4.7 km/h 4.8 km/h 47% 0 mm 14.0 W/m2
06:48 18.8 °C 7.6 °C 1006.7 hPa ENE 4.7 km/h 9.7 km/h 48% 0 mm 16.0 W/m2
06:54 18.9 °C 7.3 °C 1006.7 hPa Calm   4.8 km/h 47% 0 mm 18.0 W/m2
06:59 19 °C 7.7 °C 1007 hPa Calm   3.2 km/h 48% 0 mm 19.0 W/m2
07:04 19.1 °C 7.5 °C 1007 hPa Calm   4.8 km/h 47% 0 mm 21.0 W/m2
07:09 19.2 °C 7.9 °C 1007 hPa Calm   3.2 km/h 48% 0 mm 23.0 W/m2
07:14 19.4 °C 8.1 °C 1007 hPa Calm   4.8 km/h 48% 0 mm 25.0 W/m2
07:19 19.7 °C 8.1 °C 1007.3 hPa Calm   6.4 km/h 47% 0 mm 26.0 W/m2
07:24 19.8 °C 7.8 °C 1007.3 hPa Calm   3.2 km/h 46% 0 mm 28.0 W/m2
07:29 20.1 °C 8.4 °C 1007.3 hPa Calm   4.8 km/h 47% 0 mm 28.0 W/m2
07:34 20.3 °C 8.6 °C 1007.3 hPa East 1.4 km/h 4.8 km/h 47% 0 mm 30.0 W/m2
07:39 20.5 °C 8.5 °C 1007.3 hPa East 3.2 km/h 3.2 km/h 46% 0 mm 32.0 W/m2
07:44 20.7 °C 8.3 °C 1007.3 hPa NNE 1.4 km/h 1.6 km/h 45% 0 mm 39.0 W/m2
08:00 21.8 °C 8.7 °C 1007.3 hPa Calm     43% 0 mm 338.0 W/m2
08:05 22.7 °C 9.1 °C 1007.3 hPa NNW 4.7 km/h 8 km/h 42% 0 mm 367.0 W/m2
08:10 23.6 °C 8.8 °C 1007.3 hPa NE 1.4 km/h 6.4 km/h 39% 0 mm 388.0 W/m2
08:15 24.3 °C 9.1 °C 1007.3 hPa Calm   4.8 km/h 38% 0 mm 410.0 W/m2
08:20 25 °C 8.9 °C 1007.3 hPa NNW 3.2 km/h 9.7 km/h 36% 0 mm 429.0 W/m2
08:25 25.4 °C 9.2 °C 1007.3 hPa NW 4.7 km/h 9.7 km/h 36% 0 mm 448.0 W/m2
08:31 25.9 °C 9.7 °C 1007.3 hPa Calm   6.4 km/h 36% 0 mm 469.0 W/m2
08:36 26.3 °C 9.6 °C 1007.3 hPa Calm   11.3 km/h 35% 0 mm 489.0 W/m2
08:41 26.8 °C 10.1 °C 1007.3 hPa NNE 9.7 km/h 14.5 km/h 35% 0 mm 510.0 W/m2
08:47 27 °C 10.2 °C 1007.3 hPa NE 6.4 km/h 9.7 km/h 35% 0 mm 533.0 W/m2
08:52 27.2 °C 10.4 °C 1007.3 hPa NW 11.1 km/h 11.3 km/h 35% 0 mm 550.0 W/m2
08:57 27.2 °C 10.4 °C 1007.3 hPa North 4.7 km/h 17.7 km/h 35% 0 mm 568.0 W/m2
09:08 27.4 °C 10.6 °C 1007 hPa North 6.4 km/h 11.3 km/h 35% 0 mm 608.0 W/m2
09:13 27.6 °C 10.8 °C 1007 hPa NNW 6.4 km/h 14.5 km/h 35% 0 mm 626.0 W/m2
09:18 27.7 °C 10.8 °C 1006.7 hPa North 3.2 km/h 4.8 km/h 35% 0 mm 649.0 W/m2
09:34 28.1 °C 10.8 °C 1006.7 hPa North 1.4 km/h 11.3 km/h 34% 0 mm 698.0 W/m2
09:39 28.3 °C 10.5 °C 1006.7 hPa NNW 3.2 km/h 6.4 km/h 33% 0 mm 712.0 W/m2
09:44 28.6 °C 10.8 °C 1006.7 hPa NNW 9.7 km/h 12.9 km/h 33% 0 mm 731.0 W/m2
09:54 29 °C 10.6 °C 1006.7 hPa NNW 4.7 km/h 11.3 km/h 32% 0 mm 765.0 W/m2
10:05 29.3 °C 10.9 °C 1006.3 hPa Calm   8 km/h 32% 0 mm 791.0 W/m2
10:10 29.3 °C 10.4 °C 1006.3 hPa NNW 4.7 km/h 9.7 km/h 31% 0 mm 807.0 W/m2
10:15 29.4 °C 10.5 °C 1006.3 hPa NW 1.4 km/h 4.8 km/h 31% 0 mm 823.0 W/m2
10:20 29.5 °C 10.6 °C 1006.3 hPa NW 7.9 km/h 11.3 km/h 31% 0 mm 838.0 W/m2
10:25 29.6 °C 10.7 °C 1006.3 hPa North 7.9 km/h 16.1 km/h 31% 0 mm 847.0 W/m2
10:30 29.8 °C 10.9 °C 1006.3 hPa NW 7.9 km/h 11.3 km/h 31% 0 mm 858.0 W/m2
10:35 30.1 °C 11.6 °C 1006.3 hPa WNW 1.4 km/h 4.8 km/h 32% 0 mm 875.0 W/m2
10:40 30.3 °C 10.8 °C 1006.3 hPa WSW 1.4 km/h 19.3 km/h 30% 0 mm 886.0 W/m2
10:45 30.3 °C 10.8 °C 1006.3 hPa Calm   11.3 km/h 30% 0 mm 911.0 W/m2
10:56 30.4 °C 11.4 °C 1006 hPa NNE 6.4 km/h 12.9 km/h 31% 0 mm 937.0 W/m2
11:17 30.4 °C 11.4 °C 1006 hPa NNW 7.9 km/h 14.5 km/h 31% 0 mm 1078.0 W/m2
11:22 30.3 °C 10.8 °C 1006 hPa NE 4.7 km/h 12.9 km/h 30% 0 mm 237.0 W/m2
11:32 30.3 °C 11.3 °C 1006 hPa Calm   3.2 km/h 31% 0 mm 197.0 W/m2
11:39 30.1 °C 11.1 °C 1006 hPa North 6.4 km/h 16.1 km/h 31% 0 mm 246.0 W/m2
11:44 30.1 °C 11.1 °C 1006 hPa West 3.2 km/h 8 km/h 31% 0 mm 1206.0 W/m2
11:50 30.2 °C 11.2 °C 1006 hPa Calm   8 km/h 31% 0 mm 1236.0 W/m2
11:55 30.4 °C 10.9 °C 1006 hPa WNW 1.4 km/h 6.4 km/h 30% 0 mm 258.0 W/m2
12:00 30.7 °C 11.1 °C 1005.6 hPa West 4.7 km/h 11.3 km/h 30% 0 mm 1229.0 W/m2
12:05 31.1 °C 11 °C 1005.6 hPa West 1.4 km/h 9.7 km/h 29% 0 mm 1188.0 W/m2
12:10 31.2 °C 10 °C 1005.6 hPa ENE 1.4 km/h 9.7 km/h 27% 0 mm 1188.0 W/m2
12:24 30.5 °C 8.2 °C 1005.6 hPa NE 1.4 km/h 9.7 km/h 25% 0 mm 186.0 W/m2
12:29 30.3 °C 8.7 °C 1005.3 hPa NE 3.2 km/h 16.1 km/h 26% 0 mm 204.0 W/m2
12:35 30.2 °C 8.6 °C 1005.3 hPa NNE 1.4 km/h 3.2 km/h 26% 0 mm 308.0 W/m2
12:44 30.3 °C 8.1 °C 1005.3 hPa NE 3.2 km/h 12.9 km/h 25% 0 mm 304.0 W/m2
12:49 30.5 °C 8.2 °C 1005 hPa South 1.4 km/h 8 km/h 25% 0 mm 417.0 W/m2
12:54 30.7 °C 9 °C 1005.3 hPa SSE 3.2 km/h 17.7 km/h 26% 0 mm 265.0 W/m2
13:00 30.7 °C 9 °C 1005 hPa SE 1.4 km/h 12.9 km/h 26% 0 mm 225.0 W/m2
13:05 30.4 °C 8.7 °C 1005 hPa NNE 4.7 km/h 8 km/h 26% 0 mm 229.0 W/m2
13:10 30.3 °C 8.1 °C 1005 hPa ENE 1.4 km/h 8 km/h 25% 0 mm 207.0 W/m2
13:15 30.3 °C 8.7 °C 1005 hPa SSE 1.4 km/h 4.8 km/h 26% 0 mm 322.0 W/m2
13:21 30.2 °C 10.2 °C 1005 hPa WNW 7.9 km/h 12.9 km/h 29% 0 mm 278.0 W/m2
13:26 29.7 °C 10.3 °C 1005 hPa WSW 11.1 km/h 14.5 km/h 30% 0 mm 373.0 W/m2
13:31 29.2 °C 11.3 °C 1004.6 hPa Calm   16.1 km/h 33% 0 mm 244.0 W/m2
13:36 29.2 °C 11.3 °C 1004.6 hPa WSW 11.1 km/h 16.1 km/h 33% 0 mm 1206.0 W/m2
13:41 29.4 °C 11.4 °C 1004.6 hPa WSW 6.4 km/h 12.9 km/h 33% 0 mm 1206.0 W/m2
13:46 29.2 °C 10.8 °C 1004.3 hPa SW 9.7 km/h 24.1 km/h 32% 0 mm 276.0 W/m2
13:51 28.7 °C 10.8 °C 1004.6 hPa WNW 1.4 km/h 16.1 km/h 33% 0 mm 193.0 W/m2
13:56 28.4 °C 11 °C 1004.6 hPa NW 3.2 km/h 6.4 km/h 34% 0 mm 169.0 W/m2
14:01 28.2 °C 10.8 °C 1005 hPa SW 3.2 km/h 8 km/h 34% 0 mm 149.0 W/m2
14:07 27.9 °C 10.6 °C 1005 hPa WNW 1.4 km/h 8 km/h 34% 0 mm 137.0 W/m2
14:12 27.6 °C 10.8 °C 1005.3 hPa West 1.4 km/h 4.8 km/h 35% 0 mm 156.0 W/m2
14:17 27.4 °C 11 °C 1005 hPa WNW 7.9 km/h 16.1 km/h 36% 0 mm 216.0 W/m2
14:22 27.1 °C 11.6 °C 1005 hPa NNW 1.4 km/h 9.7 km/h 38% 0 mm 258.0 W/m2
14:27 26.9 °C 11 °C 1005 hPa NNW 9.7 km/h 16.1 km/h 37% 0 mm 278.0 W/m2
14:32 26.8 °C 10.9 °C 1005 hPa WNW 1.4 km/h 4.8 km/h 37% 0 mm 480.0 W/m2
14:37 26.9 °C 11 °C 1005 hPa NW 3.2 km/h 14.5 km/h 37% 0 mm 355.0 W/m2
14:42 27.1 °C 12 °C 1004.6 hPa WSW 11.1 km/h 11.3 km/h 39% 0 mm 1164.0 W/m2
14:52 27.2 °C 12 °C 1005.3 hPa SW 6.4 km/h 6.4 km/h 39% 0 mm 79.0 W/m2
14:58 26.5 °C 13.6 °C 1005.6 hPa South 4.7 km/h 14.5 km/h 45% 0 mm 53.0 W/m2
15:03 25.7 °C 16.5 °C 1005.6 hPa Calm   4.8 km/h 57% 1.02 mm 51.0 W/m2
15:08 24.3 °C 16.8 °C 1005.6 hPa Calm   1.6 km/h 63% 3.56 mm 69.0 W/m2
15:13 22.9 °C 16.9 °C 1005.3 hPa NNW 3.2 km/h 4.8 km/h 69% 3.81 mm 100.0 W/m2
15:18 22 °C 17.4 °C 1005.3 hPa Calm   3.2 km/h 75% 4.06 mm 153.0 W/m2
15:26 21.3 °C 17.9 °C 1005 hPa Calm   4.8 km/h 81% 4.06 mm 283.0 W/m2
15:31 21.2 °C 18 °C 1004.6 hPa NNW 3.2 km/h 9.7 km/h 82% 4.06 mm 251.0 W/m2
15:36 21.2 °C 17.2 °C 1004.6 hPa WNW 3.2 km/h 11.3 km/h 78% 4.06 mm 279.0 W/m2
15:42 21.4 °C 17.2 °C 1004.6 hPa NNW 3.2 km/h 4.8 km/h 77% 4.06 mm 809.0 W/m2
15:47 22 °C 17.2 °C 1004.6 hPa WSW 7.9 km/h 12.9 km/h 74% 4.06 mm 935.0 W/m2
15:52 22.7 °C 16 °C 1004.6 hPa WSW 4.7 km/h 11.3 km/h 66% 4.06 mm 946.0 W/m2
15:57 23.2 °C 16.3 °C 1004.6 hPa West 3.2 km/h 9.7 km/h 65% 4.06 mm 939.0 W/m2
16:04 23.7 °C 14.7 °C 1004.6 hPa West 4.7 km/h 14.5 km/h 57% 1.52 mm 954.0 W/m2
16:09 23.8 °C 14.5 °C 1004.6 hPa West 7.9 km/h 8 km/h 56% 0.25 mm 207.0 W/m2
16:14 23.7 °C 13.8 °C 1005 hPa SW 3.2 km/h 4.8 km/h 54% 0.25 mm 93.0 W/m2
16:19 23.6 °C 15.6 °C 1005.3 hPa Calm   3.2 km/h 61% 0 mm 58.0 W/m2
16:25 23.2 °C 17.4 °C 1004.6 hPa Calm   1.6 km/h 70% 3.05 mm 74.0 W/m2
16:31 22.4 °C 17.1 °C 1004.3 hPa Calm   1.6 km/h 72% 3.05 mm 81.0 W/m2
16:36 21.7 °C 16.6 °C 1004.3 hPa Calm     73% 3.05 mm 95.0 W/m2
16:41 21.3 °C 18.1 °C 1004.3 hPa Calm   3.2 km/h 82% 3.05 mm 262.0 W/m2
16:46 21.3 °C 18.1 °C 1003.9 hPa Calm   1.6 km/h 82% 3.05 mm 573.0 W/m2
16:51 21.7 °C 18.1 °C 1003.9 hPa Calm   3.2 km/h 80% 3.05 mm 571.0 W/m2
16:56 22.1 °C 17.9 °C 1004.3 hPa Calm   4.8 km/h 77% 3.05 mm 503.0 W/m2
17:06 22.2 °C 16.2 °C 1004.3 hPa NNW 1.4 km/h 4.8 km/h 69% 3.05 mm 601.0 W/m2
17:12 22.2 °C 16.5 °C 1004.3 hPa Calm   1.6 km/h 70% 3.05 mm 146.0 W/m2
17:17 22.2 °C 16.5 °C 1004.3 hPa Calm     70% 3.3 mm 97.0 W/m2
17:22 22.2 °C 16.9 °C 1004.3 hPa Calm     72% 2.03 mm 185.0 W/m2
17:27 22.2 °C 16.7 °C 1004.3 hPa Calm     71% 0.25 mm 471.0 W/m2
17:32 22.2 °C 15.8 °C 1004.3 hPa Calm   6.4 km/h 67% 0.25 mm 271.0 W/m2
17:37 22.4 °C 16 °C 1004.3 hPa Calm   1.6 km/h 67% 0.25 mm 563.0 W/m2
17:42 22.7 °C 15.5 °C 1004.3 hPa Calm   1.6 km/h 64% 0.25 mm 367.0 W/m2
17:52 22.8 °C 15.1 °C 1004.3 hPa WSW 1.4 km/h 3.2 km/h 62% 0.25 mm 69.0 W/m2
17:57 22.7 °C 15.3 °C 1004.3 hPa Calm   4.8 km/h 63% 0.25 mm 54.0 W/m2
18:03 22.7 °C 15.8 °C 1004.6 hPa WSW 1.4 km/h 3.2 km/h 65% 0.25 mm 47.0 W/m2
18:09 22.9 °C 15.2 °C 1004.3 hPa SW 4.7 km/h 6.4 km/h 62% 0.25 mm 107.0 W/m2
18:14 23.3 °C 15.6 °C 1004.6 hPa Calm   4.8 km/h 62% 0 mm 281.0 W/m2
18:20 23.9 °C 14.6 °C 1004.6 hPa Calm   4.8 km/h 56% 0 mm 269.0 W/m2
18:25 24.4 °C 14.2 °C 1004.6 hPa SSW 3.2 km/h 4.8 km/h 53% 0 mm 255.0 W/m2
18:30 24.8 °C 14 °C 1004.6 hPa Calm   3.2 km/h 51% 0 mm 237.0 W/m2
18:35 25.3 °C 13.2 °C 1005 hPa Calm   3.2 km/h 47% 0 mm 234.0 W/m2
18:40 25.6 °C 13.1 °C 1005 hPa WSW 4.7 km/h 4.8 km/h 46% 0 mm 214.0 W/m2
18:45 25.6 °C 12.8 °C 1005 hPa West 7.9 km/h 8 km/h 45% 0 mm 162.0 W/m2
18:50 25.4 °C 12.3 °C 1005 hPa Calm   1.6 km/h 44% 0 mm 90.0 W/m2
18:56 25.4 °C 13.6 °C 1005 hPa West 1.4 km/h 1.6 km/h 48% 0 mm 46.0 W/m2
19:01 25.4 °C 12.9 °C 1005 hPa Calm     46% 0 mm 40.0 W/m2
19:10 25.2 °C 12.8 °C 1005.3 hPa NNW 3.2 km/h 6.4 km/h 46% 0 mm 42.0 W/m2
19:17 25 °C 12.6 °C 1005.6 hPa NNW 1.4 km/h 4.8 km/h 46% 0 mm 32.0 W/m2
19:22 24.9 °C 12.5 °C 1006 hPa Calm   4.8 km/h 46% 0 mm 14.0 W/m2
19:27 24.8 °C 13 °C 1006 hPa Calm   1.6 km/h 48% 0 mm 7.0 W/m2
19:32 24.7 °C 13 °C 1006 hPa Calm     48% 0 mm 5.0 W/m2
19:37 24.5 °C 13.1 °C 1005.6 hPa Calm     49% 0 mm 5.0 W/m2
19:43 24.3 °C 13.2 °C 1005.6 hPa Calm     50% 0 mm 0.0 W/m2
19:48 24.1 °C 12.4 °C 1006 hPa Calm   3.2 km/h 48% 0 mm 0.0 W/m2
19:53 23.9 °C 12.2 °C 1006.3 hPa Calm     48% 0 mm 0.0 W/m2
19:58 23.8 °C 12.8 °C 1006.7 hPa Calm     50% 0 mm 0.0 W/m2
20:03 23.7 °C 13.3 °C 1006.7 hPa Calm     52% 0 mm 0.0 W/m2
20:08 23.6 °C 13.7 °C 1006.7 hPa West 1.4 km/h 1.6 km/h 54% 0 mm 0.0 W/m2
20:15 23.3 °C 13.5 °C 1006.7 hPa Calm   3.2 km/h 54% 0 mm 0.0 W/m2
20:26 23.1 °C 13.3 °C 1006.7 hPa Calm   1.6 km/h 54% 0 mm 0.0 W/m2
20:33 23 °C 13.2 °C 1007 hPa Calm     54% 0 mm 0.0 W/m2
20:38 22.8 °C 12.7 °C 1007 hPa Calm   1.6 km/h 53% 0 mm 0.0 W/m2
20:43 22.7 °C 13.2 °C 1007 hPa Calm     55% 0 mm 0.0 W/m2
20:48 22.6 °C 13.6 °C 1007 hPa Calm     57% 0 mm 0.0 W/m2
20:53 22.4 °C 13.7 °C 1007 hPa Calm     58% 0 mm 0.0 W/m2
20:58 22.3 °C 13.6 °C 1006.7 hPa Calm     58% 0 mm 0.0 W/m2
21:04 22.2 °C 13.8 °C 1006.7 hPa Calm   3.2 km/h 59% 0 mm 0.0 W/m2
21:09 22.1 °C 14 °C 1007 hPa Calm     60% 0 mm 0.0 W/m2
21:14 21.9 °C 14 °C 1007 hPa Calm     61% 0 mm 0.0 W/m2
21:19 21.8 °C 13.9 °C 1007 hPa Calm   1.6 km/h 61% 0 mm 0.0 W/m2
21:24 21.7 °C 14.1 °C 1007 hPa Calm     62% 0 mm 0.0 W/m2
21:29 21.6 °C 14 °C 1007.3 hPa Calm     62% 0 mm 0.0 W/m2
21:34 21.3 °C 14.2 °C 1007.3 hPa Calm   1.6 km/h 64% 0 mm 0.0 W/m2
21:39 21.2 °C 14.1 °C 1007.7 hPa Calm     64% 0 mm 0.0 W/m2
21:44 21.2 °C 15.1 °C 1007.7 hPa SSE 4.8 km/h 4.8 km/h 68% 0 mm 0.0 W/m2
21:49 21.1 °C 15 °C 1007.7 hPa SE 3.2 km/h 6.4 km/h 68% 0 mm 0.0 W/m2
21:55 21.1 °C 15.4 °C 1007.7 hPa Calm   3.2 km/h 70% 0 mm 0.0 W/m2
22:00 21.2 °C 15.1 °C 1007.7 hPa NNE 9.7 km/h 9.7 km/h 68% 0 mm 0.0 W/m2
22:05 21.2 °C 13.6 °C 1007.7 hPa NE 1.4 km/h 8 km/h 62% 0 mm 0.0 W/m2
22:10 21.4 °C 13.6 °C 1008 hPa Calm     61% 0 mm 0.0 W/m2
22:18 21.4 °C 14.8 °C 1008.4 hPa Calm   4.8 km/h 66% 0 mm 0.0 W/m2
22:23 21.4 °C 14.5 °C 1008.7 hPa SE 3.2 km/h 6.4 km/h 65% 0 mm 0.0 W/m2
22:28 21.3 °C 14 °C 1009 hPa South 3.2 km/h 9.7 km/h 63% 0 mm 0.0 W/m2
22:38 21.4 °C 14.5 °C 1009 hPa East 1.4 km/h 3.2 km/h 65% 0 mm 0.0 W/m2
22:44 21.3 °C 14.5 °C 1009 hPa WNW 1.4 km/h 9.7 km/h 65% 0 mm 0.0 W/m2
22:50 21.1 °C 14.3 °C 1009.4 hPa SE 1.4 km/h 9.7 km/h 65% 0 mm 0.0 W/m2
22:55 21 °C 13.9 °C 1009.7 hPa East 6.4 km/h 9.7 km/h 64% 0 mm 0.0 W/m2
23:04 21.1 °C 11.7 °C 1009.7 hPa ESE 9.7 km/h 20.9 km/h 55% 0 mm 0.0 W/m2
23:14 21.2 °C 12.1 °C 1009.7 hPa SSE 9.7 km/h 19.3 km/h 56% 0 mm 0.0 W/m2
23:22 20.3 °C 12.5 °C 1009.4 hPa SSW 1.4 km/h 8 km/h 61% 0.51 mm 0.0 W/m2
23:32 19.2 °C 13.6 °C 1009 hPa NNE 1.4 km/h 4.8 km/h 70% 0.51 mm 0.0 W/m2
23:37 18.8 °C 14.1 °C 1009 hPa Calm   4.8 km/h 74% 0.51 mm 0.0 W/m2
23:42 18.4 °C 13.7 °C 1009 hPa Calm   1.6 km/h 74% 0.51 mm 0.0 W/m2
23:50 18.1 °C 14 °C 1009 hPa Calm   3.2 km/h 77% 0.51 mm 0.0 W/m2
Olympia, Windhoek, Namibia
Compliments of Weather Underground - 3.25 mb